OAL210 LGTS-EDDM

Flight info

Callsign OAL210
Flight time 2h 20m
Altitude 36000
Route EDASI N146 BEKVA DCT MAVAR DCT VELIT DCT NUPSO DCT ULPIN DCT MONFA DCT BAKOR DCT SOTOV/N0420F240 T101 BETOS BETOS1A
Aircraft B738/M-SDE2E3FGHIRWXY/LB1

Departure

Time 2026-05-08 06:48
Airport Thessaloniki Macedonia International Airport (LGTS)

Arrival

Time 2026-05-08 09:09
Airport Munich Airport (EDDM)
Time Latitude Longitude Altitude Speed Heading
2026-05-08 06:40 40.52346 22.97532 27 ft 0 kts 45°
2026-05-08 06:45 40.52342 22.97544 27 ft 3 kts 117°
2026-05-08 06:45 40.52312 22.97574 27 ft 8 kts 155°
2026-05-08 06:45 40.52237 22.97616 27 ft 12 kts 156°
2026-05-08 06:46 40.52180 22.97649 27 ft 9 kts 155°
2026-05-08 06:46 40.52106 22.97710 28 ft 14 kts 133°
2026-05-08 06:46 40.52023 22.97818 28 ft 21 kts 130°
2026-05-08 06:46 40.51969 22.98028 28 ft 28 kts 103°
2026-05-08 06:47 40.51920 22.98277 28 ft 27 kts 103°
2026-05-08 06:47 40.51878 22.98504 28 ft 25 kts 103°
2026-05-08 06:47 40.51815 22.98696 27 ft 23 kts 162°
2026-05-08 06:47 40.51693 22.98619 27 ft 21 kts 258°
2026-05-08 06:48 40.51741 22.98328 28 ft 66 kts 284°
2026-05-08 06:48 40.51917 22.97387 30 ft 143 kts 283°
2026-05-08 06:48 40.52195 22.95856 239 ft 190 kts 283°
2026-05-08 06:48 40.52502 22.94285 1592 ft 161 kts 284°
2026-05-08 06:49 40.52808 22.92930 2500 ft 161 kts 282°
2026-05-08 06:49 40.53104 22.91394 2945 ft 177 kts 281°
2026-05-08 06:49 40.53428 22.89853 3688 ft 181 kts 282°
2026-05-08 06:49 40.53780 22.88129 4065 ft 206 kts 282°
2026-05-08 06:50 40.54145 22.86235 4418 ft 223 kts 282°
2026-05-08 06:50 40.54578 22.84179 4734 ft 242 kts 282°
2026-05-08 06:50 40.55021 22.82006 5270 ft 253 kts 281°
2026-05-08 06:50 40.55092 22.79597 5466 ft 275 kts 251°
2026-05-08 06:51 40.54151 22.77518 6487 ft 265 kts 227°
2026-05-08 06:51 40.52764 22.75917 7322 ft 268 kts 217°
2026-05-08 06:51 40.51270 22.74400 8082 ft 273 kts 216°
2026-05-08 06:51 40.49776 22.72827 8871 ft 278 kts 225°
2026-05-08 06:52 40.48782 22.70629 9642 ft 285 kts 250°
2026-05-08 06:52 40.48369 22.68062 10397 ft 291 kts 260°
2026-05-08 06:52 40.48185 22.66276 10616 ft 306 kts 261°
2026-05-08 06:52 40.47913 22.63394 10799 ft 330 kts 261°
2026-05-08 06:53 40.47621 22.60309 10968 ft 353 kts 261°
2026-05-08 06:53 40.47295 22.57007 11161 ft 373 kts 261°
2026-05-08 06:53 40.46944 22.53582 11665 ft 382 kts 261°
2026-05-08 06:53 40.46578 22.50111 12328 ft 386 kts 260°
2026-05-08 06:54 40.46225 22.46602 13032 ft 389 kts 264°
2026-05-08 06:54 40.46483 22.43080 13652 ft 399 kts 286°
2026-05-08 06:54 40.47708 22.39801 14316 ft 404 kts 302°
2026-05-08 06:54 40.49471 22.36907 14948 ft 407 kts 308°
2026-05-08 06:55 40.51341 22.34090 15525 ft 410 kts 309°
2026-05-08 06:55 40.53245 22.31265 16093 ft 414 kts 309°
2026-05-08 06:55 40.55156 22.28422 16695 ft 416 kts 308°
2026-05-08 06:55 40.57071 22.25548 17268 ft 419 kts 308°
2026-05-08 06:56 40.58988 22.22635 17890 ft 423 kts 307°
2026-05-08 06:56 40.60930 22.19730 18498 ft 424 kts 308°
2026-05-08 06:56 40.62870 22.16782 19030 ft 426 kts 307°
2026-05-08 06:56 40.64798 22.13815 19577 ft 428 kts 307°
2026-05-08 06:57 40.66708 22.10863 20144 ft 428 kts 306°
2026-05-08 06:57 40.68638 22.07878 20678 ft 427 kts 306°
2026-05-08 06:57 40.70579 22.04881 21122 ft 431 kts 306°
2026-05-08 06:57 40.72537 22.01870 21573 ft 433 kts 306°
2026-05-08 06:58 40.74372 21.99019 21984 ft 433 kts 305°
2026-05-08 06:58 40.76328 21.95979 22334 ft 437 kts 306°
2026-05-08 06:58 40.78311 21.92932 22748 ft 439 kts 306°
2026-05-08 06:58 40.80295 21.89868 23206 ft 439 kts 305°
2026-05-08 06:59 40.82274 21.86793 23629 ft 441 kts 305°
2026-05-08 06:59 40.84263 21.83704 23948 ft 442 kts 305°
2026-05-08 06:59 40.86247 21.80626 24221 ft 446 kts 305°
2026-05-08 06:59 40.88263 21.77502 24504 ft 448 kts 306°
2026-05-08 07:00 40.90295 21.74337 24759 ft 453 kts 306°
2026-05-08 07:00 40.92342 21.71147 25160 ft 454 kts 306°
2026-05-08 07:00 40.94391 21.67959 25512 ft 455 kts 306°
2026-05-08 07:00 40.96454 21.64753 25786 ft 459 kts 306°
2026-05-08 07:01 40.98523 21.61529 26111 ft 460 kts 306°
2026-05-08 07:01 41.00539 21.58392 26376 ft 463 kts 306°
2026-05-08 07:01 41.02639 21.55124 26628 ft 466 kts 306°
2026-05-08 07:01 41.04711 21.51887 26887 ft 467 kts 306°
2026-05-08 07:02 41.06826 21.48575 27121 ft 470 kts 306°
2026-05-08 07:02 41.08942 21.45258 27379 ft 471 kts 306°
2026-05-08 07:02 41.11060 21.41942 27723 ft 471 kts 306°
2026-05-08 07:02 41.13180 21.38624 28115 ft 470 kts 306°
2026-05-08 07:03 41.15294 21.35313 28486 ft 469 kts 306°
2026-05-08 07:03 41.17400 21.32009 28791 ft 469 kts 306°
2026-05-08 07:03 41.19512 21.28689 29097 ft 470 kts 306°
2026-05-08 07:03 41.21590 21.25416 29467 ft 469 kts 306°
2026-05-08 07:04 41.23689 21.22104 29871 ft 468 kts 306°
2026-05-08 07:04 41.25786 21.18791 30267 ft 467 kts 306°
2026-05-08 07:04 41.27869 21.15497 30601 ft 466 kts 306°
2026-05-08 07:04 41.29958 21.12193 30978 ft 464 kts 306°
2026-05-08 07:05 41.32034 21.08909 31290 ft 464 kts 306°
2026-05-08 07:05 41.34114 21.05626 31594 ft 463 kts 306°
2026-05-08 07:05 41.36185 21.02342 31866 ft 463 kts 306°
2026-05-08 07:05 41.38128 20.99253 32176 ft 462 kts 306°
2026-05-08 07:06 41.40184 20.95979 32582 ft 460 kts 306°
2026-05-08 07:06 41.42235 20.92712 32951 ft 458 kts 306°
2026-05-08 07:06 41.44274 20.89462 33285 ft 456 kts 306°
2026-05-08 07:06 41.46311 20.86206 33619 ft 456 kts 306°
2026-05-08 07:07 41.48212 20.83169 33928 ft 455 kts 306°
2026-05-08 07:07 41.50240 20.79927 34253 ft 454 kts 306°
2026-05-08 07:07 41.52271 20.76678 34382 ft 457 kts 306°
2026-05-08 07:07 41.54309 20.73413 34594 ft 457 kts 306°
2026-05-08 07:08 41.56339 20.70161 34929 ft 454 kts 305°
2026-05-08 07:08 41.58348 20.66921 35309 ft 450 kts 304°
2026-05-08 07:08 41.60308 20.63744 35621 ft 448 kts 304°
2026-05-08 07:08 41.62301 20.60530 35900 ft 447 kts 305°
2026-05-08 07:09 41.64301 20.57338 36069 ft 448 kts 305°
2026-05-08 07:09 41.66307 20.54130 36049 ft 449 kts 305°
2026-05-08 07:09 41.70117 20.47540 36050 ft 445 kts 301°
2026-05-08 07:10 41.73738 20.40782 36051 ft 447 kts 301°
2026-05-08 07:10 41.77361 20.33991 36066 ft 448 kts 301°
2026-05-08 07:11 41.80994 20.27240 36063 ft 449 kts 301°
2026-05-08 07:11 41.84654 20.20466 36058 ft 448 kts 301°
2026-05-08 07:12 41.88298 20.13681 36047 ft 447 kts 301°
2026-05-08 07:12 41.91951 20.06876 36038 ft 449 kts 301°
2026-05-08 07:13 41.95595 20.00084 36042 ft 448 kts 301°
2026-05-08 07:13 41.99098 19.93573 36052 ft 445 kts 301°
2026-05-08 07:14 42.02670 19.86894 36044 ft 444 kts 301°
2026-05-08 07:14 42.06280 19.80130 36042 ft 445 kts 301°
2026-05-08 07:15 42.09893 19.73337 36036 ft 447 kts 301°
2026-05-08 07:15 42.13508 19.66526 36050 ft 447 kts 301°
2026-05-08 07:16 42.17124 19.59697 36032 ft 447 kts 301°
2026-05-08 07:16 42.20710 19.52910 36021 ft 447 kts 301°
2026-05-08 07:17 42.24314 19.46076 36025 ft 446 kts 301°
2026-05-08 07:17 42.27906 19.39246 36022 ft 445 kts 301°
2026-05-08 07:18 42.31483 19.32430 36022 ft 444 kts 301°
2026-05-08 07:18 42.35051 19.25619 36020 ft 443 kts 301°
2026-05-08 07:19 42.38607 19.18811 36022 ft 443 kts 301°
2026-05-08 07:19 42.42152 19.11999 36023 ft 442 kts 301°
2026-05-08 07:20 42.45650 19.05198 36021 ft 442 kts 300°
2026-05-08 07:20 42.49140 18.98494 36026 ft 444 kts 302°
2026-05-08 07:21 42.52735 18.91696 36027 ft 444 kts 301°
2026-05-08 07:21 42.56264 18.84809 36031 ft 445 kts 301°
2026-05-08 07:22 42.59801 18.77898 36045 ft 445 kts 301°
2026-05-08 07:22 42.63348 18.70991 36019 ft 446 kts 301°
2026-05-08 07:23 42.66905 18.64176 36022 ft 446 kts 302°
2026-05-08 07:23 42.70509 18.57297 36044 ft 444 kts 298°
2026-05-08 07:24 42.73936 18.50236 36033 ft 448 kts 301°
2026-05-08 07:24 42.77506 18.43254 36050 ft 450 kts 301°
2026-05-08 07:25 42.81067 18.36290 36046 ft 451 kts 300°
2026-05-08 07:26 42.86434 18.25721 36040 ft 452 kts 300°
2026-05-08 07:26 42.89994 18.18685 36044 ft 451 kts 300°
2026-05-08 07:27 42.93543 18.11632 36046 ft 451 kts 300°
2026-05-08 07:27 42.97091 18.04573 36049 ft 450 kts 300°
2026-05-08 07:28 43.00541 17.97695 36049 ft 448 kts 300°
2026-05-08 07:28 43.04033 17.90726 36048 ft 446 kts 300°
2026-05-08 07:29 43.07521 17.83728 36058 ft 444 kts 300°
2026-05-08 07:29 43.11011 17.76741 36052 ft 443 kts 300°
2026-05-08 07:30 43.14480 17.69754 36040 ft 444 kts 300°
2026-05-08 07:30 43.17922 17.62805 36045 ft 444 kts 300°
2026-05-08 07:31 43.21390 17.55792 36054 ft 444 kts 300°
2026-05-08 07:31 43.24848 17.48790 36041 ft 444 kts 299°
2026-05-08 07:32 43.28303 17.41764 36051 ft 443 kts 300°
2026-05-08 07:32 43.31728 17.34791 36062 ft 443 kts 300°
2026-05-08 07:33 43.35171 17.27778 36053 ft 442 kts 301°
2026-05-08 07:33 43.38848 17.20955 36053 ft 445 kts 304°
2026-05-08 07:34 43.42672 17.14252 36041 ft 445 kts 304°
2026-05-08 07:34 43.46482 17.07542 36034 ft 444 kts 304°
2026-05-08 07:35 43.50252 17.00819 36059 ft 444 kts 303°
2026-05-08 07:35 43.53901 16.94263 36043 ft 444 kts 303°
2026-05-08 07:36 43.57659 16.87489 36047 ft 444 kts 303°
2026-05-08 07:36 43.61387 16.80759 36050 ft 444 kts 303°
2026-05-08 07:37 43.65141 16.73966 36040 ft 444 kts 303°
2026-05-08 07:37 43.68883 16.67179 36051 ft 444 kts 303°
2026-05-08 07:38 43.72627 16.60372 36041 ft 444 kts 303°
2026-05-08 07:38 43.76370 16.53558 36036 ft 445 kts 303°
2026-05-08 07:39 43.80103 16.46737 36051 ft 444 kts 303°
2026-05-08 07:39 43.83799 16.39966 36051 ft 443 kts 303°
2026-05-08 07:40 43.87514 16.33149 36045 ft 443 kts 303°
2026-05-08 07:40 43.91225 16.26326 36036 ft 443 kts 303°
2026-05-08 07:41 43.94308 16.20645 36040 ft 442 kts 303°
2026-05-08 07:41 43.97995 16.13836 36035 ft 440 kts 303°
2026-05-08 07:42 44.01638 16.07091 36061 ft 440 kts 303°
2026-05-08 07:42 44.05305 16.00284 36036 ft 439 kts 303°
2026-05-08 07:43 44.08863 15.93665 36041 ft 438 kts 303°
2026-05-08 07:43 44.12504 15.86879 36045 ft 437 kts 303°
2026-05-08 07:44 44.16025 15.80008 36051 ft 434 kts 300°
2026-05-08 07:44 44.19382 15.72992 36056 ft 434 kts 300°
2026-05-08 07:45 44.22726 15.65974 36058 ft 434 kts 300°
2026-05-08 07:45 44.26065 15.59010 36058 ft 435 kts 300°
2026-05-08 07:46 44.29439 15.51989 36051 ft 436 kts 300°
2026-05-08 07:46 44.32819 15.44947 36059 ft 438 kts 300°
2026-05-08 07:47 44.36204 15.37873 36066 ft 438 kts 300°
2026-05-08 07:47 44.39591 15.30776 36065 ft 439 kts 300°
2026-05-08 07:48 44.42979 15.23658 36057 ft 440 kts 300°
2026-05-08 07:48 44.46370 15.16518 36061 ft 440 kts 299°
2026-05-08 07:49 44.49741 15.09403 36046 ft 441 kts 299°
2026-05-08 07:49 44.53131 15.02229 36050 ft 441 kts 299°
2026-05-08 07:50 44.56444 14.95200 36057 ft 440 kts 299°
2026-05-08 07:50 44.59819 14.88025 36054 ft 440 kts 299°
2026-05-08 07:51 44.63182 14.80852 36054 ft 440 kts 299°
2026-05-08 07:51 44.66539 14.73678 36045 ft 439 kts 299°
2026-05-08 07:52 44.69867 14.66551 36047 ft 438 kts 299°
2026-05-08 07:52 44.73550 14.59691 36057 ft 440 kts 305°
2026-05-08 07:53 44.77478 14.53079 36058 ft 440 kts 305°
2026-05-08 07:53 44.81390 14.46467 36049 ft 439 kts 304°
2026-05-08 07:54 44.85243 14.39853 36057 ft 439 kts 304°
2026-05-08 07:54 44.89102 14.33176 36069 ft 439 kts 304°
2026-05-08 07:55 44.92953 14.26485 36050 ft 439 kts 304°
2026-05-08 07:55 44.96803 14.19783 36057 ft 440 kts 304°
2026-05-08 07:56 45.00648 14.13078 36051 ft 439 kts 304°
2026-05-08 07:56 45.04495 14.06352 36055 ft 440 kts 304°
2026-05-08 07:57 45.08248 13.99772 36054 ft 439 kts 303°
2026-05-08 07:57 45.12073 13.93056 36086 ft 439 kts 303°
2026-05-08 07:58 45.15904 13.86314 36067 ft 438 kts 303°
2026-05-08 07:58 45.19716 13.79585 36067 ft 437 kts 303°
2026-05-08 07:59 45.23526 13.72845 36057 ft 438 kts 303°
2026-05-08 07:59 45.27333 13.66098 36062 ft 438 kts 303°
2026-05-08 08:00 45.31136 13.59338 36058 ft 438 kts 303°
2026-05-08 08:00 45.34909 13.52612 36060 ft 438 kts 303°
2026-05-08 08:01 45.38707 13.45830 36064 ft 438 kts 303°
2026-05-08 08:01 45.42498 13.39043 36049 ft 437 kts 303°
2026-05-08 08:02 45.46282 13.32251 36069 ft 437 kts 303°
2026-05-08 08:02 45.50192 13.25662 36066 ft 442 kts 309°
2026-05-08 08:03 45.54686 13.19621 36068 ft 444 kts 311°
2026-05-08 08:03 45.59231 13.13656 36086 ft 444 kts 311°
2026-05-08 08:04 45.63748 13.07634 36092 ft 444 kts 311°
2026-05-08 08:04 45.68236 13.01578 36098 ft 444 kts 310°
2026-05-08 08:05 45.72593 12.95668 36063 ft 445 kts 310°
2026-05-08 08:05 45.77053 12.89600 36051 ft 445 kts 310°
2026-05-08 08:06 45.81543 12.83476 36045 ft 446 kts 310°
2026-05-08 08:06 45.86039 12.77336 36045 ft 446 kts 310°
2026-05-08 08:07 45.90537 12.71182 36098 ft 446 kts 310°
2026-05-08 08:07 45.95021 12.65028 36078 ft 446 kts 310°
2026-05-08 08:08 45.99467 12.58911 36074 ft 445 kts 310°
2026-05-08 08:08 46.03944 12.52754 36073 ft 446 kts 310°
2026-05-08 08:09 46.08422 12.46573 36079 ft 445 kts 310°
2026-05-08 08:09 46.12885 12.40375 36084 ft 445 kts 310°
2026-05-08 08:10 46.17347 12.34170 36079 ft 445 kts 310°
2026-05-08 08:10 46.21811 12.27956 36071 ft 446 kts 310°
2026-05-08 08:11 46.26238 12.21780 36082 ft 445 kts 310°
2026-05-08 08:11 46.30691 12.15556 36076 ft 447 kts 310°
2026-05-08 08:12 46.35145 12.09332 36118 ft 444 kts 310°
2026-05-08 08:12 46.39568 12.03097 36087 ft 443 kts 310°
2026-05-08 08:13 46.43902 11.96988 36084 ft 441 kts 310°
2026-05-08 08:13 46.48292 11.90790 36088 ft 440 kts 310°
2026-05-08 08:14 46.52647 11.84625 36069 ft 440 kts 310°
2026-05-08 08:14 46.57025 11.78414 36094 ft 440 kts 310°
2026-05-08 08:15 46.61417 11.72163 36075 ft 442 kts 309°
2026-05-08 08:15 46.65665 11.65724 36098 ft 441 kts 307°
2026-05-08 08:16 46.69859 11.59193 36085 ft 442 kts 307°
2026-05-08 08:16 46.74043 11.52704 36089 ft 442 kts 307°
2026-05-08 08:17 46.78269 11.46170 36103 ft 443 kts 307°
2026-05-08 08:17 46.80387 11.42893 35982 ft 446 kts 307°
2026-05-08 08:17 46.82524 11.39578 35452 ft 449 kts 307°
2026-05-08 08:17 46.84656 11.36273 34820 ft 446 kts 307°
2026-05-08 08:18 46.86783 11.32973 34202 ft 445 kts 306°
2026-05-08 08:18 46.88905 11.29671 33415 ft 445 kts 306°
2026-05-08 08:18 46.91022 11.26383 32719 ft 443 kts 308°
2026-05-08 08:18 46.93457 11.23538 31927 ft 458 kts 325°
2026-05-08 08:19 46.96436 11.21771 31289 ft 468 kts 339°
2026-05-08 08:19 46.99696 11.21162 30570 ft 481 kts 356°
2026-05-08 08:19 47.03037 11.21399 29802 ft 481 kts 359°
2026-05-08 08:19 47.06378 11.21717 28929 ft 481 kts 359°
2026-05-08 08:20 47.09713 11.22027 28225 ft 477 kts 359°
2026-05-08 08:20 47.13009 11.22300 27606 ft 472 kts 358°
2026-05-08 08:20 47.16228 11.22535 27065 ft 466 kts 358°
2026-05-08 08:20 47.19457 11.22751 26451 ft 462 kts 358°
2026-05-08 08:21 47.22657 11.22957 25863 ft 458 kts 359°
2026-05-08 08:21 47.25827 11.23161 25313 ft 452 kts 359°
2026-05-08 08:21 47.28956 11.23366 24758 ft 448 kts 359°
2026-05-08 08:21 47.32053 11.23572 24193 ft 443 kts 359°
2026-05-08 08:22 47.35112 11.23776 23722 ft 438 kts 360°
2026-05-08 08:22 47.38142 11.23981 23104 ft 434 kts 360°
2026-05-08 08:22 47.41145 11.24182 22527 ft 429 kts
2026-05-08 08:22 47.44111 11.24383 21964 ft 424 kts 360°
2026-05-08 08:23 47.47040 11.24582 21403 ft 419 kts
2026-05-08 08:23 47.49946 11.24778 20838 ft 416 kts
2026-05-08 08:23 47.52831 11.24972 20283 ft 413 kts
2026-05-08 08:23 47.55684 11.25157 19738 ft 409 kts 359°
2026-05-08 08:24 47.58512 11.25200 19205 ft 405 kts 357°
2026-05-08 08:24 47.61324 11.25161 18674 ft 402 kts 357°
2026-05-08 08:24 47.64074 11.25119 18123 ft 399 kts 358°
2026-05-08 08:24 47.66842 11.25100 17522 ft 397 kts 358°
2026-05-08 08:25 47.69598 11.25096 16970 ft 393 kts 358°
2026-05-08 08:25 47.72326 11.25160 16417 ft 391 kts
2026-05-08 08:25 47.75007 11.25823 15879 ft 390 kts 13°
2026-05-08 08:25 47.77566 11.27141 15368 ft 387 kts 19°
2026-05-08 08:26 47.80069 11.28587 14842 ft 384 kts 19°
2026-05-08 08:26 47.82548 11.29999 14583 ft 375 kts 19°
2026-05-08 08:26 47.84914 11.31317 14425 ft 363 kts 19°
2026-05-08 08:26 47.87253 11.32605 14264 ft 352 kts 18°
2026-05-08 08:27 47.89579 11.33514 14122 ft 340 kts
2026-05-08 08:27 47.91896 11.33778 13993 ft 329 kts
2026-05-08 08:27 47.94156 11.33944 13848 ft 320 kts
2026-05-08 08:27 47.96352 11.34109 13701 ft 312 kts
2026-05-08 08:28 47.98492 11.34279 13559 ft 304 kts
2026-05-08 08:28 48.00553 11.34452 13435 ft 295 kts
2026-05-08 08:28 48.02577 11.34629 13307 ft 287 kts
2026-05-08 08:28 48.03886 11.34744 13240 ft 282 kts
2026-05-08 08:29 48.06436 11.34971 13078 ft 271 kts
2026-05-08 08:29 48.07698 11.35201 12888 ft 272 kts 13°
2026-05-08 08:29 48.09769 11.37243 12547 ft 275 kts 51°
2026-05-08 08:29 48.10604 11.39791 12289 ft 275 kts 78°
2026-05-08 08:30 48.10615 11.42621 12029 ft 273 kts 105°
2026-05-08 08:30 48.10147 11.44390 11862 ft 271 kts 124°
2026-05-08 08:30 48.07208 11.47396 11370 ft 260 kts 173°
2026-05-08 08:31 48.05422 11.47479 11138 ft 256 kts 186°
2026-05-08 08:31 48.03640 11.47324 10889 ft 257 kts 186°
2026-05-08 08:31 48.01851 11.47164 10651 ft 257 kts 186°
2026-05-08 08:31 48.00065 11.47014 10403 ft 257 kts 186°
2026-05-08 08:32 47.98282 11.46821 10159 ft 254 kts 194°
2026-05-08 08:32 47.96711 11.45764 9887 ft 246 kts 221°
2026-05-08 08:32 47.95610 11.43876 9627 ft 241 kts 242°
2026-05-08 08:32 47.95072 11.41536 9353 ft 239 kts 263°
2026-05-08 08:33 47.95189 11.39077 9095 ft 239 kts 285°
2026-05-08 08:33 47.95954 11.36883 8829 ft 241 kts 308°
2026-05-08 08:33 47.97228 11.35317 8583 ft 243 kts 329°
2026-05-08 08:33 47.98826 11.34493 8324 ft 246 kts 352°
2026-05-08 08:34 48.00538 11.34512 8093 ft 246 kts
2026-05-08 08:34 48.02246 11.34641 7826 ft 246 kts
2026-05-08 08:34 48.03959 11.34775 7570 ft 245 kts
2026-05-08 08:34 48.05664 11.34908 7329 ft 246 kts
2026-05-08 08:35 48.07367 11.35090 7071 ft 246 kts
2026-05-08 08:35 48.08888 11.36217 6808 ft 248 kts 45°
2026-05-08 08:35 48.09768 11.38395 6581 ft 247 kts 75°
2026-05-08 08:35 48.09833 11.40921 6342 ft 245 kts 105°
2026-05-08 08:36 48.09095 11.43135 6079 ft 241 kts 134°
2026-05-08 08:36 48.07735 11.44531 5816 ft 238 kts 161°
2026-05-08 08:36 48.06115 11.44906 5577 ft 237 kts 181°
2026-05-08 08:36 48.04469 11.44783 5367 ft 235 kts 183°
2026-05-08 08:37 48.02852 11.44635 5237 ft 229 kts 183°
2026-05-08 08:37 48.01270 11.44496 5163 ft 227 kts 182°
2026-05-08 08:37 47.99686 11.44362 5119 ft 230 kts 184°
2026-05-08 08:37 47.98149 11.43714 5093 ft 233 kts 213°
2026-05-08 08:38 47.97026 11.42009 5094 ft 238 kts 240°
2026-05-08 08:38 47.96538 11.39680 5098 ft 237 kts 268°
2026-05-08 08:38 47.96851 11.37298 5085 ft 236 kts 297°
2026-05-08 08:38 47.97895 11.35466 5101 ft 232 kts 326°
2026-05-08 08:39 47.99380 11.34553 5112 ft 233 kts 352°
2026-05-08 08:39 48.01010 11.34480 5117 ft 237 kts
2026-05-08 08:39 48.02663 11.34617 5102 ft 238 kts
2026-05-08 08:39 48.04312 11.34767 5099 ft 236 kts
2026-05-08 08:40 48.05944 11.34906 5096 ft 234 kts
2026-05-08 08:40 48.07556 11.35165 5082 ft 232 kts 19°
2026-05-08 08:40 48.08862 11.36490 5102 ft 230 kts 53°
2026-05-08 08:40 48.09509 11.38646 5116 ft 234 kts 82°
2026-05-08 08:41 48.09340 11.41066 5101 ft 236 kts 113°
2026-05-08 08:41 48.08350 11.42975 5096 ft 234 kts 146°
2026-05-08 08:41 48.06840 11.43787 5104 ft 232 kts 174°
2026-05-08 08:41 48.05223 11.43783 5116 ft 232 kts 183°
2026-05-08 08:42 48.03607 11.43628 5102 ft 233 kts 183°
2026-05-08 08:42 48.01982 11.43472 5094 ft 235 kts 183°
2026-05-08 08:42 48.00349 11.43327 5101 ft 235 kts 183°
2026-05-08 08:42 47.98773 11.42854 5081 ft 236 kts 208°
2026-05-08 08:43 47.97603 11.41204 5100 ft 234 kts 241°
2026-05-08 08:43 47.97195 11.38877 5100 ft 235 kts 272°
2026-05-08 08:43 47.97640 11.36563 5096 ft 235 kts 303°
2026-05-08 08:43 47.98848 11.34942 5115 ft 236 kts 336°
2026-05-08 08:44 48.00442 11.34452 5118 ft 236 kts 360°
2026-05-08 08:44 48.02099 11.34541 5112 ft 237 kts
2026-05-08 08:44 48.03727 11.34698 5100 ft 239 kts
2026-05-08 08:44 48.05389 11.34849 5108 ft 239 kts
2026-05-08 08:45 48.07055 11.35012 5100 ft 240 kts
2026-05-08 08:45 48.08558 11.35965 5093 ft 236 kts 43°
2026-05-08 08:45 48.09436 11.37971 5101 ft 233 kts 75°
2026-05-08 08:45 48.09488 11.40359 5112 ft 231 kts 105°
2026-05-08 08:46 48.08723 11.42437 5099 ft 231 kts 136°
2026-05-08 08:46 48.07346 11.43623 5100 ft 231 kts 166°
2026-05-08 08:46 48.05744 11.43794 5109 ft 233 kts 183°
2026-05-08 08:46 48.04119 11.43647 5110 ft 235 kts 183°
2026-05-08 08:47 48.02483 11.43499 5106 ft 236 kts 182°
2026-05-08 08:47 48.00856 11.43362 5096 ft 237 kts 183°
2026-05-08 08:47 47.99214 11.43104 5083 ft 238 kts 197°
2026-05-08 08:47 47.97854 11.41762 5103 ft 237 kts 231°
2026-05-08 08:48 47.97200 11.39524 5102 ft 237 kts 264°
2026-05-08 08:48 47.97426 11.37113 5096 ft 237 kts 295°
2026-05-08 08:48 47.98469 11.35250 5106 ft 236 kts 328°
2026-05-08 08:48 47.99980 11.34485 5117 ft 234 kts 356°
2026-05-08 08:49 48.01635 11.34502 5110 ft 235 kts
2026-05-08 08:49 48.03256 11.34651 5103 ft 237 kts
2026-05-08 08:49 48.04905 11.34806 5100 ft 238 kts
2026-05-08 08:49 48.06558 11.34950 5099 ft 238 kts
2026-05-08 08:50 48.08147 11.35529 5088 ft 236 kts 32°
2026-05-08 08:50 48.09244 11.37297 5101 ft 234 kts 65°
2026-05-08 08:50 48.09544 11.39652 5109 ft 232 kts 96°
2026-05-08 08:50 48.08991 11.41880 5111 ft 231 kts 128°
2026-05-08 08:51 48.07737 11.43348 5106 ft 231 kts 159°
2026-05-08 08:51 48.06175 11.43734 5109 ft 233 kts 181°
2026-05-08 08:51 48.04544 11.43599 5115 ft 235 kts 183°
2026-05-08 08:51 48.02903 11.43449 5117 ft 236 kts 182°
2026-05-08 08:52 48.01255 11.43309 5100 ft 238 kts 182°
2026-05-08 08:52 47.99605 11.43138 5087 ft 239 kts 189°
2026-05-08 08:52 47.98134 11.42071 5098 ft 238 kts 225°
2026-05-08 08:52 47.97318 11.39972 5103 ft 236 kts 257°
2026-05-08 08:53 47.97375 11.37552 5105 ft 234 kts 289°
2026-05-08 08:53 47.98268 11.35553 5094 ft 233 kts 322°
2026-05-08 08:53 47.99721 11.34559 5113 ft 232 kts 351°
2026-05-08 08:53 48.01334 11.34484 5118 ft 233 kts
2026-05-08 08:54 48.02961 11.34626 5109 ft 235 kts
2026-05-08 08:54 48.04585 11.34776 5099 ft 238 kts
2026-05-08 08:54 48.06241 11.34922 5105 ft 239 kts
2026-05-08 08:54 48.07888 11.35393 5095 ft 250 kts 29°
2026-05-08 08:55 48.09107 11.37241 5116 ft 258 kts 65°
2026-05-08 08:55 48.09482 11.39863 5132 ft 260 kts 85°
2026-05-08 08:55 48.09668 11.42537 5111 ft 258 kts 82°
2026-05-08 08:55 48.09933 11.44984 5098 ft 255 kts 79°
2026-05-08 08:56 48.10313 11.47578 5097 ft 253 kts 76°
2026-05-08 08:56 48.10763 11.50125 5096 ft 252 kts 74°
2026-05-08 08:56 48.11265 11.52640 5107 ft 255 kts 72°
2026-05-08 08:56 48.11811 11.55185 5111 ft 258 kts 72°
2026-05-08 08:57 48.12379 11.57737 5103 ft 259 kts 71°
2026-05-08 08:57 48.12989 11.60402 5133 ft 284 kts 71°
2026-05-08 08:57 48.13646 11.63207 5099 ft 284 kts 70°
2026-05-08 08:57 48.14295 11.65974 5092 ft 279 kts 70°
2026-05-08 08:58 48.14934 11.68667 5088 ft 268 kts 70°
2026-05-08 08:58 48.15556 11.71259 5085 ft 259 kts 70°
2026-05-08 08:58 48.16158 11.73767 5089 ft 253 kts 70°
2026-05-08 08:58 48.16749 11.76241 5103 ft 252 kts 70°
2026-05-08 08:59 48.17340 11.78712 5114 ft 257 kts 70°
2026-05-08 08:59 48.17949 11.81256 5120 ft 260 kts 69°
2026-05-08 08:59 48.18729 11.83694 5109 ft 258 kts 59°
2026-05-08 08:59 48.19662 11.85986 5115 ft 257 kts 58°
2026-05-08 09:00 48.20613 11.88259 5110 ft 257 kts 58°
2026-05-08 09:00 48.21559 11.90533 5098 ft 257 kts 58°
2026-05-08 09:00 48.22499 11.92813 5105 ft 257 kts 58°
2026-05-08 09:00 48.23431 11.95099 5112 ft 256 kts 59°
2026-05-08 09:01 48.24344 11.97361 5105 ft 257 kts 59°
2026-05-08 09:01 48.25268 11.99653 5108 ft 257 kts 59°
2026-05-08 09:01 48.26194 12.01952 5107 ft 257 kts 59°
2026-05-08 09:01 48.27118 12.04258 5117 ft 257 kts 59°
2026-05-08 09:02 48.28042 12.06565 5109 ft 258 kts 59°
2026-05-08 09:02 48.28968 12.08880 5103 ft 259 kts 59°
2026-05-08 09:02 48.29892 12.11195 5108 ft 259 kts 59°
2026-05-08 09:02 48.30815 12.13511 5120 ft 258 kts 59°
2026-05-08 09:03 48.31798 12.15760 5098 ft 256 kts 46°
2026-05-08 09:03 48.33287 12.17036 5116 ft 242 kts
2026-05-08 09:03 48.34856 12.16693 5098 ft 223 kts 329°
2026-05-08 09:03 48.35801 12.15039 5100 ft 204 kts 288°
2026-05-08 09:04 48.36137 12.12965 5111 ft 204 kts 280°
2026-05-08 09:04 48.36339 12.10905 5108 ft 199 kts 276°
2026-05-08 09:04 48.36423 12.08835 5096 ft 197 kts 271°
2026-05-08 09:04 48.36439 12.06758 4941 ft 201 kts 270°
2026-05-08 09:05 48.36370 12.04652 4680 ft 201 kts 264°
2026-05-08 09:05 48.36223 12.02592 4402 ft 200 kts 263°
2026-05-08 09:05 48.36060 12.00531 4140 ft 197 kts 263°
2026-05-08 09:05 48.35896 11.98492 3888 ft 195 kts 263°
2026-05-08 09:06 48.35740 11.96513 3621 ft 185 kts 263°
2026-05-08 09:06 48.35594 11.94687 3388 ft 170 kts 263°
2026-05-08 09:06 48.35459 11.92974 3171 ft 164 kts 263°
2026-05-08 09:06 48.35325 11.91271 2954 ft 164 kts 263°
2026-05-08 09:07 48.35193 11.89583 2727 ft 159 kts 263°
2026-05-08 09:07 48.35063 11.87935 2516 ft 159 kts 264°
2026-05-08 09:07 48.34942 11.86291 2299 ft 158 kts 265°
2026-05-08 09:07 48.34835 11.84645 2060 ft 157 kts 264°
2026-05-08 09:08 48.34681 11.83024 1800 ft 156 kts 265°
2026-05-08 09:08 48.34549 11.81407 1606 ft 155 kts 265°
2026-05-08 09:08 48.34426 11.79799 1481 ft 152 kts 265°
2026-05-08 09:08 48.34323 11.78409 1466 ft 106 kts 264°
2026-05-08 09:09 48.34257 11.77481 1465 ft 73 kts 272°
2026-05-08 09:09 48.34382 11.76843 1462 ft 48 kts 299°
2026-05-08 09:09 48.34482 11.76942 1461 ft 24 kts 84°
2026-05-08 09:09 48.34499 11.77167 1462 ft 16 kts 83°
2026-05-08 09:10 48.34513 11.77354 1458 ft 20 kts 84°
2026-05-08 09:10 48.34529 11.77553 1465 ft 19 kts 83°
2026-05-08 09:10 48.34544 11.77767 1466 ft 23 kts 84°
2026-05-08 09:10 48.34622 11.77905 1465 ft 14 kts
2026-05-08 09:11 48.34733 11.77887 1465 ft 21 kts 353°
2026-05-08 09:11 48.34915 11.77814 1459 ft 32 kts 351°
2026-05-08 09:11 48.35081 11.77741 1465 ft 12 kts 274°
2026-05-08 09:11 48.35081 11.77736 1465 ft 0 kts 275°